[[{"header":{"parameterUnit":"m.s-1","parameterCategory":1,"la1":30.2991,"la2":30.254,"lo1":-89.0895,"lo2":-89.0444,"dy":0.0017,"dx":0.0017,"nx":28,"ny":28,"refTime":"2023-09-14T03:00:00:Z","depth":0,"parameterNumber":2,"parameterNumberName":"U-component_of_WINDS"},"data":[0,0,0,0,0,0,0,0,0,0,0,0,0,0,0,0,0,0,0,0,0,0,0,0,0,0,0,0,0,0,0,0,0,0,0,0,0,0,0,0,0,0,0,0,0,0,0,0,0,0,0,0,0,0,0,0,0,0,-2.5504,-2.5504,0,-2.5527,-2.5527,-2.5527,-2.548,-2.5479,-2.5477,-2.5476,-2.5496,-2.5498,-2.55,0,0,0,0,0,0,0,0,0,0,0,0,0,-2.5417,-2.5418,-2.5504,-2.5504,-2.5505,-2.5527,-2.5527,-2.5528,-2.548,-2.5479,-2.5477,-2.5475,-2.5495,-2.5498,-2.55,0,0,0,0,0,0,0,0,0,0,0,0,0,-2.5448,-2.5419,-2.5504,-2.5484,-2.5482,-2.5527,-2.5527,-2.5528,-2.5481,-2.5478,-2.5476,-2.5474,-2.5494,-2.5497,-2.55,-2.5564,0,0,-2.5509,-2.5511,0,0,0,0,0,0,0,0,-2.5447,-2.5452,-2.5487,-2.5485,-2.5484,-2.5498,-2.5504,-2.554,-2.5481,-2.5481,-2.5476,-2.5473,-2.5498,-2.5501,-2.551,-2.5565,-2.5566,-2.5509,-2.5511,-2.5513,-2.5513,0,0,0,0,0,0,0,-2.5445,-2.545,-2.5513,-2.5487,-2.5485,-2.5473,-2.5475,-2.551,-2.5502,-2.5481,-2.5478,-2.5481,-2.5497,-2.5507,-2.551,-2.5566,-2.5509,-2.5512,-2.5514,-2.5515,-2.5674,-2.5677,0,0,0,0,0,0,-2.5445,-2.5449,-2.5512,-2.5514,-2.5459,-2.5476,-2.5478,-2.5496,-2.5502,-2.5501,-2.5483,-2.5479,-2.5503,-2.5507,-2.5511,-2.5585,-2.5513,-2.5515,-2.5517,-2.5672,-2.5675,-2.5677,0,0,0,0,0,0,-2.5444,-2.5451,-2.5511,-2.548,-2.5487,-2.548,-2.55,-2.5498,-2.5508,-2.5503,-2.5501,-2.5495,-2.5502,-2.5507,-2.5551,-2.5585,-2.5517,-2.5519,-2.5669,-2.5673,-2.5676,-2.5734,0,0,0,0,0,0,-2.5441,-2.5451,-2.5476,-2.5481,-2.5489,-2.5553,-2.5502,-2.55,-2.5513,-2.5508,-2.5514,-2.5513,-2.55,-2.5547,-2.5554,-2.5588,-2.5522,-2.5666,-2.5671,-2.5675,-2.5729,-2.5739,-2.5748,0,0,0,0,0,-2.5438,-2.5491,-2.5478,-2.5485,-2.552,-2.5555,-2.5559,-2.5544,-2.5516,-2.5541,-2.5538,-2.5513,-2.5581,-2.5552,-2.556,-2.5594,-2.5663,-2.5669,-2.5675,-2.5725,-2.5737,-2.5748,0,0,0,0,0,0,-2.5488,-2.5491,-2.5476,-2.5533,-2.5544,-2.5547,-2.5577,-2.5558,-2.5576,-2.557,-2.555,-2.5552,-2.56,-2.5602,-2.557,-2.5656,-2.5617,-2.5625,-2.5653,-2.5665,-2.5674,-2.5671,-2.5524,0,0,0,0,0,-2.5507,-2.5535,-2.5536,-2.5585,-2.5592,-2.5584,-2.5598,-2.5586,-2.5596,-2.56,-2.5601,-2.5611,-2.5634,-2.565,-2.5671,-2.573,-2.573,-2.5758,-2.5767,-2.5775,-2.5781,-2.581,-2.5822,-2.5696,-2.5696,-2.5695,0,0,-2.5543,-2.5548,-2.5567,-2.5596,-2.5603,-2.5632,-2.5588,-2.5621,-2.5641,-2.5605,-2.5647,-2.5648,-2.5658,-2.571,-2.5732,-2.5712,-2.5816,-2.5782,-2.5788,-2.579,-2.5817,-2.5829,-2.584,-2.5699,-2.5699,-2.5698,0,0,-2.5624,-2.5632,-2.5673,-2.5682,-2.5694,-2.5688,-2.5698,-2.5704,-2.5703,-2.5746,-2.5719,-2.5743,-2.5784,-2.5792,-2.5802,-2.5887,-2.5864,-2.5894,-2.5943,-2.5972,-2.5982,-2.599,-2.6019,-2.6029,-2.5901,-2.5901,-2.5901,0,-2.5667,-2.5711,-2.5696,-2.5731,-2.5743,-2.5714,-2.5755,-2.5763,-2.5781,-2.579,-2.5769,-2.5819,-2.5824,-2.5876,-2.5897,-2.5907,-2.5916,-2.5892,-2.5982,-2.599,-2.5998,-2.6025,-2.6036,-2.5904,-2.5904,-2.5904,-2.5903,0,-2.5763,-2.5793,-2.5825,-2.5844,-2.5861,-2.5898,-2.5889,-2.5907,-2.5894,-2.589,-2.5933,-2.5938,-2.5959,-2.5972,-2.5959,-2.6022,-2.6009,-2.5985,-2.5945,-2.6014,-2.6039,-2.6049,-2.5909,-2.5908,-2.5907,-2.5906,0,0,-2.5873,-2.5885,-2.5897,-2.5905,-2.5916,-2.5939,-2.5975,-2.5997,-2.6012,-2.6027,-2.6055,-2.6091,-2.6069,-2.608,-2.6068,-2.6094,-2.6158,-2.6066,-2.6066,-2.6081,-2.6226,-2.6242,-2.6254,-2.6145,-2.6147,-2.6148,-2.6224,0,-2.5952,-2.6014,-2.6003,-2.6063,-2.6091,-2.6063,-2.6095,-2.6105,-2.6103,-2.6125,-2.6122,-2.6147,-2.6117,-2.6123,-2.6148,-2.6145,-2.6187,-2.614,-2.6169,-2.617,-2.6164,-2.6268,-2.6285,-2.6356,-2.6234,-2.6236,-2.6237,0,-2.6051,-2.6069,-2.6133,-2.614,-2.6151,-2.6179,-2.6198,-2.622,-2.6231,-2.6227,-2.624,-2.6223,-2.6258,-2.622,-2.6266,-2.6235,-2.6246,-2.6247,-2.6249,-2.6249,-2.6206,-2.6268,-2.6379,-2.6389,-2.6253,-2.6251,-2.625,0,-2.6122,-2.6163,-2.6206,-2.6214,-2.6224,-2.6244,-2.6249,-2.6258,-2.6272,-2.6288,-2.6297,-2.6317,-2.6327,-2.6343,-2.6332,-2.6306,-2.638,-2.6341,-2.6376,-2.6376,-2.639,-2.6389,-2.6503,-2.6403,-2.6402,-2.6402,-2.6402,0,-2.6209,-2.6249,-2.6238,-2.6264,-2.6307,-2.6294,-2.6337,-2.6338,-2.6346,-2.6371,-2.635,-2.6373,-2.6358,-2.6381,-2.6373,-2.6411,-2.6417,-2.6414,-2.641,-2.6414,-2.6414,-2.6419,-2.6413,-2.6405,-2.6404,-2.6404,-2.6403,0,-2.6295,-2.629,-2.6335,-2.6341,-2.6344,-2.6375,-2.6379,-2.6403,-2.64,-2.6432,-2.6439,-2.6434,-2.6459,-2.645,-2.6477,-2.6472,-2.652,-2.6512,-2.6517,-2.6513,-2.6548,-2.6544,-2.6667,-2.6681,-2.6574,-2.6575,-2.6576,0,-2.635,-2.6379,-2.6389,-2.6405,-2.6412,-2.6437,-2.6452,-2.644,-2.6455,-2.647,-2.6492,-2.6515,-2.6533,-2.6575,-2.6573,-2.6593,-2.6583,-2.6625,-2.6586,-2.6588,-2.6581,-2.6578,-2.658,-2.6632,-2.6633,-2.6634,-2.6635,0,-2.6446,-2.6442,-2.6464,-2.6486,-2.6504,-2.652,-2.6533,-2.6547,-2.6536,-2.6555,-2.6581,-2.6595,-2.6623,-2.6646,-2.6664,-2.6668,-2.6649,-2.6648,-2.6656,-2.6659,-2.6659,-2.6657,-2.6535,-2.6644,-2.6643,-2.6642,-2.6642,-2.6641,-2.6516,-2.6541,-2.6551,-2.6576,-2.6586,-2.66,-2.6622,-2.6623,-2.6644,-2.6666,-2.6659,-2.6688,-2.6697,-2.672,-2.6727,-2.6749,-2.6732,-2.6746,-2.6749,-2.6751,-2.6755,-2.6659,-2.6753,-2.6752,-2.6752,-2.6752,-2.6752,0,-2.6609,-2.6615,-2.6639,-2.6659,-2.6679,-2.6662,-2.6676,-2.6693,-2.6719,-2.673,-2.6749,-2.6778,-2.6801,-2.6801,-2.6822,-2.6839,-2.6831,-2.6845,-2.6842,-2.6843,-2.6769,-2.6758,-2.6851,-2.6851,-2.6851,-2.6851,-2.6851,-2.6851,-2.666,-2.67,-2.6698,-2.6742,-2.6748,-2.6777,-2.6787,-2.6799,-2.6807,-2.6841,-2.686,-2.6861,-2.6868,-2.6889,-2.6908,-2.6908,-2.6915,-2.6932,-2.6928,-2.6858,-2.6848,-2.6839,-2.6828,-2.6934,-2.6934,-2.6999,-2.6999,-2.7]},{"header":{"parameterUnit":"m.s-1","parameterCategory":1,"la1":30.2991,"la2":30.254,"lo1":-89.0895,"lo2":-89.0444,"dy":0.0017,"dx":0.0017,"nx":28,"ny":28,"refTime":"2023-09-14T03:00:00:Z","depth":0,"parameterNumber":3,"parameterNumberName":"V-component_of_WINDS"},"data":[0,0,0,0,0,0,0,0,0,0,0,0,0,0,0,0,0,0,0,0,0,0,0,0,0,0,0,0,0,0,0,0,0,0,0,0,0,0,0,0,0,0,0,0,0,0,0,0,0,0,0,0,0,0,0,0,0,0,-1.1966,-1.1967,0,-1.2073,-1.2075,-1.2076,-1.2114,-1.2113,-1.2113,-1.2113,-1.2225,-1.2228,-1.2231,0,0,0,0,0,0,0,0,0,0,0,0,0,-1.1795,-1.1798,-1.1966,-1.1967,-1.1968,-1.2073,-1.2075,-1.2076,-1.2114,-1.2113,-1.2113,-1.2112,-1.2223,-1.2227,-1.2231,0,0,0,0,0,0,0,0,0,0,0,0,0,-1.1882,-1.1799,-1.1966,-1.2,-1.2004,-1.2073,-1.2075,-1.2076,-1.2114,-1.2113,-1.2113,-1.2112,-1.2222,-1.2227,-1.2232,-1.2275,0,0,-1.2247,-1.225,0,0,0,0,0,0,0,0,-1.1877,-1.1889,-1.1994,-1.1998,-1.2002,-1.2079,-1.2055,-1.2143,-1.2114,-1.2072,-1.2113,-1.2112,-1.2177,-1.2186,-1.2207,-1.228,-1.2285,-1.2248,-1.2251,-1.2253,-1.2254,0,0,0,0,0,0,0,-1.1871,-1.1884,-1.2008,-1.1995,-1.2,-1.201,-1.2022,-1.2072,-1.2127,-1.2076,-1.2079,-1.2091,-1.2179,-1.2202,-1.221,-1.2287,-1.2248,-1.2252,-1.2255,-1.2257,-1.2401,-1.2401,0,0,0,0,0,0,-1.1859,-1.1879,-1.2005,-1.2012,-1.1937,-1.2014,-1.2027,-1.2055,-1.2126,-1.2136,-1.2091,-1.2092,-1.2194,-1.2204,-1.2214,-1.2269,-1.2253,-1.2258,-1.2261,-1.24,-1.2401,-1.2402,0,0,0,0,0,0,-1.1855,-1.187,-1.2001,-1.1946,-1.1964,-1.2018,-1.2049,-1.2058,-1.2081,-1.2138,-1.2148,-1.2105,-1.2194,-1.2207,-1.2259,-1.2273,-1.226,-1.2265,-1.2399,-1.24,-1.2401,-1.2379,0,0,0,0,0,0,-1.185,-1.1869,-1.1885,-1.1946,-1.1966,-1.2044,-1.205,-1.206,-1.2089,-1.2091,-1.2153,-1.2163,-1.2194,-1.2252,-1.2264,-1.228,-1.2268,-1.2398,-1.2399,-1.2401,-1.2379,-1.2379,-1.238,0,0,0,0,0,-1.1844,-1.1875,-1.1886,-1.1901,-1.1988,-1.2044,-1.2056,-1.2091,-1.209,-1.2107,-1.2144,-1.2161,-1.227,-1.2257,-1.2271,-1.2289,-1.2397,-1.2399,-1.2401,-1.2379,-1.2379,-1.238,0,0,0,0,0,0,-1.1815,-1.1884,-1.1896,-1.1948,-1.199,-1.2051,-1.2074,-1.2091,-1.2134,-1.2135,-1.2177,-1.2191,-1.224,-1.227,-1.2254,-1.2334,-1.2335,-1.2339,-1.2313,-1.2314,-1.2314,-1.2306,-1.2273,0,0,0,0,0,-1.1814,-1.1854,-1.1912,-1.1952,-1.1972,-1.2019,-1.2045,-1.2068,-1.2114,-1.2132,-1.2173,-1.2217,-1.2261,-1.2289,-1.2333,-1.2383,-1.2397,-1.2403,-1.2403,-1.2403,-1.2407,-1.2436,-1.2439,-1.2407,-1.2407,-1.2407,0,0,-1.1814,-1.1856,-1.1879,-1.1947,-1.1982,-1.2023,-1.2034,-1.2076,-1.2107,-1.2139,-1.219,-1.2222,-1.2274,-1.2325,-1.235,-1.2352,-1.2419,-1.2406,-1.2405,-1.2409,-1.2438,-1.2441,-1.2443,-1.2409,-1.2408,-1.2408,0,0,-1.1834,-1.187,-1.1907,-1.1941,-1.1994,-1.2025,-1.2034,-1.2092,-1.2114,-1.2166,-1.2191,-1.2228,-1.2304,-1.234,-1.2368,-1.24,-1.2417,-1.2413,-1.2416,-1.2444,-1.2446,-1.2449,-1.246,-1.2464,-1.2417,-1.2417,-1.2417,0,-1.1826,-1.1888,-1.1924,-1.1964,-1.1994,-1.2024,-1.2062,-1.2094,-1.2159,-1.2179,-1.218,-1.2274,-1.2312,-1.2372,-1.238,-1.2401,-1.2413,-1.2407,-1.2443,-1.2446,-1.2448,-1.246,-1.2464,-1.2416,-1.2416,-1.2416,-1.2416,0,-1.1876,-1.1918,-1.1942,-1.2003,-1.2035,-1.2074,-1.2116,-1.2145,-1.2165,-1.2196,-1.2249,-1.2294,-1.2348,-1.2364,-1.2385,-1.2427,-1.2426,-1.2434,-1.2436,-1.245,-1.2462,-1.2466,-1.2415,-1.2415,-1.2415,-1.2416,0,0,-1.1881,-1.196,-1.1969,-1.1996,-1.2057,-1.209,-1.2131,-1.2182,-1.2206,-1.225,-1.2285,-1.2347,-1.2355,-1.2387,-1.2412,-1.2436,-1.2459,-1.2442,-1.2444,-1.2443,-1.2509,-1.2502,-1.2506,-1.2471,-1.2472,-1.2473,-1.2504,0,-1.1908,-1.1981,-1.2015,-1.2073,-1.2112,-1.2141,-1.2177,-1.2218,-1.2248,-1.2286,-1.2319,-1.2363,-1.237,-1.2389,-1.2414,-1.2451,-1.2473,-1.2449,-1.2504,-1.2506,-1.249,-1.2513,-1.2506,-1.2534,-1.2509,-1.251,-1.251,0,-1.195,-1.1992,-1.2054,-1.211,-1.2128,-1.2159,-1.2209,-1.2244,-1.2292,-1.2312,-1.2347,-1.2371,-1.2415,-1.2413,-1.2475,-1.2458,-1.2483,-1.2504,-1.2506,-1.2512,-1.2509,-1.252,-1.2543,-1.2547,-1.2518,-1.2517,-1.2517,0,-1.1946,-1.202,-1.2066,-1.2089,-1.2155,-1.2176,-1.2205,-1.2251,-1.228,-1.2324,-1.2343,-1.2392,-1.2418,-1.2455,-1.2492,-1.2487,-1.255,-1.2551,-1.2568,-1.2567,-1.258,-1.2579,-1.2608,-1.2596,-1.2596,-1.2596,-1.2596,0,-1.1974,-1.201,-1.2065,-1.2094,-1.2136,-1.2174,-1.2215,-1.2246,-1.2287,-1.2323,-1.2351,-1.2384,-1.243,-1.2469,-1.2498,-1.2545,-1.2557,-1.2574,-1.2582,-1.2572,-1.2569,-1.2588,-1.2587,-1.2597,-1.2597,-1.2597,-1.2597,0,-1.1977,-1.2015,-1.2068,-1.2126,-1.2141,-1.217,-1.2219,-1.2249,-1.228,-1.2324,-1.2337,-1.2386,-1.2433,-1.2473,-1.2535,-1.2555,-1.2603,-1.2612,-1.2586,-1.259,-1.2605,-1.2603,-1.2648,-1.2655,-1.2638,-1.2638,-1.2638,0,-1.1992,-1.2021,-1.2081,-1.2106,-1.2134,-1.2175,-1.2204,-1.2243,-1.2272,-1.2328,-1.2351,-1.24,-1.2441,-1.2515,-1.2556,-1.2604,-1.2614,-1.2626,-1.2622,-1.2611,-1.2614,-1.2612,-1.2615,-1.2627,-1.2627,-1.2627,-1.2627,0,-1.2014,-1.2031,-1.2072,-1.2119,-1.2153,-1.2192,-1.2232,-1.2251,-1.2298,-1.233,-1.2377,-1.2409,-1.2472,-1.2521,-1.2573,-1.2603,-1.2623,-1.2628,-1.2634,-1.2624,-1.2609,-1.2617,-1.2587,-1.2627,-1.2627,-1.2627,-1.2627,-1.2627,-1.2023,-1.205,-1.2097,-1.2141,-1.2175,-1.2212,-1.2242,-1.2276,-1.2317,-1.237,-1.2391,-1.244,-1.2487,-1.2559,-1.2589,-1.2628,-1.2631,-1.2641,-1.2643,-1.2645,-1.2643,-1.2602,-1.2638,-1.2638,-1.2638,-1.2638,-1.2638,0,-1.2046,-1.2078,-1.2118,-1.2173,-1.2208,-1.2222,-1.2267,-1.2296,-1.2338,-1.238,-1.2419,-1.2474,-1.2521,-1.2566,-1.2616,-1.2638,-1.2649,-1.265,-1.2649,-1.2655,-1.2638,-1.2627,-1.2641,-1.2641,-1.2641,-1.2641,-1.2641,-1.2641,-1.2062,-1.2108,-1.2131,-1.2195,-1.2226,-1.2274,-1.2298,-1.2332,-1.2365,-1.2425,-1.2464,-1.2493,-1.2536,-1.2589,-1.2633,-1.2645,-1.2662,-1.266,-1.2675,-1.2658,-1.2657,-1.2656,-1.2646,-1.2664,-1.2664,-1.2689,-1.269,-1.269]}]]